Regional Weather Roundup
Issued by NWS

Home | Current Version | Previous Version | Graphics & Text | Print | Product List | Glossary Off
Versions: 1 2 3 4 5 6 7 8 9 10 11 12 13 14 15 16 17 18 19 20 21 22 23 24 25 26 27 28 29 30 31 32 33 34 35 36 37 38 39 40 41 42 43 44 45 46 47 48 49 50

000
ASUS43 KTOP 160859
RWRKS

WEATHER ROUNDUP FOR KANSAS
NATIONAL WEATHER SERVICE GOODLAND KS
400 AM CDT WED APR 16 2014

NOTE:  "FAIR" INDICATES FEW OR NO CLOUDS BELOW 12,000 FEET WITH NO
SIGNIFICANT WEATHER AND/OR OBSTRUCTIONS TO VISIBILITY.

KSZ001>006-013>018-027>032-041>047-161000-
NORTHWEST KANSAS

CITY           SKY/WX    TMP DP  RH WIND       PRES   REMARKS
GOODLAND       MOCLDY    42  25  50 SW10      29.61F
HAYS           CLEAR     46  18  31 S16G22    29.70F
HILL CITY      PTCLDY    48  17  29 S10       29.65F
RUSSELL        CLEAR     49  16  26 S28G38    29.69F
$$

KSZ061>065-074>080-084>089-161000-
SOUTHWEST KANSAS

CITY           SKY/WX    TMP DP  RH WIND       PRES   REMARKS
DODGE CITY     CLEAR     47  14  26 S23       29.71F
ELKHART          N/A     46  16  30 SW14        N/A
GARDEN CITY    CLEAR     43  18  36 S14       29.67F
GREAT BEND     CLEAR     46  16  29 S24G33    29.73F
LIBERAL        CLEAR     48  14  25 S18       29.71F
$$

KSZ066>073-081>083-090>101-161000-
SOUTHEAST KANSAS

CITY           SKY/WX    TMP DP  RH WIND       PRES   REMARKS
CHANUTE        PTCLDY    44  28  53 SE13      30.00S
COFFEYVILLE    CLEAR     46  29  51 S15       30.00F
HUTCHINSON     CLEAR     48  21  34 S24G30    29.83F
NEWTON         CLEAR     46  19  34 S18       29.89F
PARSONS        CLEAR     47  27  45 S9        30.01S
WICHITA INTL   MOCLDY    49  23  36 S21G35    29.88F
WICHITA JABRA  CLEAR     47  24  40 S20       29.89F
WINFIELD       CLEAR     47  25  42 S16       29.94F
$$

KSZ007>012-019>026-033>040-048>060-102>105-161000-
NORTHEAST KANSAS

CITY           SKY/WX    TMP DP  RH WIND       PRES   REMARKS
CONCORDIA      CLEAR     49  18  29 S22G29    29.74F
EMPORIA        PTCLDY    44  28  53 S16G24    29.91F
LAWRENCE       PTCLDY    46  29  51 SE13      29.95F
MANHATTAN      CLEAR     49  25  39 S14G24    29.84F
OLATHE IND     PTCLDY    43  26  51 S18G25    29.97F
OLATHE EXE     PTCLDY    42  26  53 S17       29.96F
SALINA         CLEAR     50  19  29 S24G32    29.79F
TOPEKA BILLARD CLEAR     47  27  45 S12       29.92F
TOPEKA FORBES  CLEAR     46  28  49 S20G25    29.90F
$$



USA.gov is the U.S. government's official web portal to all federal, state and local government web resources and services.